ProjectID,Date,Electric Generation,Electric Utility Import,Facility Electric Load
,YYYY-MM-DD,kW,kW,kW
163,2013-12-01,0.0,,0.0
163,2013-12-02,0.0,,0.0
163,2013-12-03,0.0,,0.0
163,2013-12-04,0.0,,0.0
163,2013-12-05,0.0,,0.0
163,2013-12-06,0.0,,0.0
163,2013-12-07,0.0,,0.0
163,2013-12-08,0.0,,0.0
163,2013-12-09,0.0,,0.0
163,2013-12-10,0.0,,0.0
163,2013-12-11,0.0,,0.0
163,2013-12-12,0.0,,0.0
163,2013-12-13,0.0,,0.0
163,2013-12-14,0.0,,0.0
163,2013-12-15,0.0,,0.0
163,2013-12-16,0.0,,0.0
163,2013-12-17,0.0,,0.0
163,2013-12-18,0.0,,0.0
163,2013-12-19,0.0,,0.0
163,2013-12-20,0.0,,0.0
163,2013-12-21,0.0,,0.0
163,2013-12-22,0.0,,0.0
163,2013-12-23,0.0,,0.0
163,2013-12-24,0.0,,0.0
163,2013-12-25,0.0,,0.0
163,2013-12-26,0.0,,0.0
163,2013-12-27,0.011250000000000001,,0.011250000000000001
163,2013-12-28,7.8374999999999995,,7.8374999999999995
163,2013-12-29,0.62625,,0.62625
163,2013-12-30,5.61375,,5.61375
163,2013-12-31,5.79,,5.79
163,2014-01-01,7.736249999999999,,7.736249999999999
163,2014-01-02,0.0,,0.0
163,2014-01-03,0.795,,0.795
163,2014-01-04,1.39125,,1.39125
163,2014-01-05,1.9274999999999995,,1.9274999999999995
163,2014-01-06,1.1175,,1.1175
163,2014-01-07,22.4175,,22.4175
163,2014-01-08,29.175,,29.175
163,2014-01-09,28.653750000000002,,28.653750000000002
163,2014-01-10,2.47125,,2.47125
163,2014-01-11,0.69,,0.69
163,2014-01-12,8.85,,8.85
163,2014-01-13,17.58,,17.58
163,2014-01-14,2.5500000000000003,,2.5500000000000003
163,2014-01-15,19.68375,,19.68375
163,2014-01-16,8.19375,,8.19375
163,2014-01-17,25.706249999999997,,25.706249999999997
163,2014-01-18,0.9899999999999999,,0.9899999999999999
163,2014-01-19,4.961250000000001,,4.961250000000001
163,2014-01-20,3.8474999999999997,,3.8474999999999997
163,2014-01-21,12.360000000000001,,12.360000000000001
163,2014-01-22,38.47875,,38.47875
163,2014-01-23,27.663749999999997,,27.663749999999997
163,2014-01-24,38.471250000000005,,38.471250000000005
163,2014-01-25,1.96875,,1.96875
163,2014-01-26,0.9112499999999999,,0.9112499999999999
163,2014-01-27,0.2288333333333333,,0.2288333333333333
163,2014-01-28,2.63625,,2.63625
163,2014-01-29,6.0825000000000005,,6.0825000000000005
163,2014-01-30,17.08125,,17.08125
163,2014-01-31,13.29,,13.29
163,2014-02-01,20.073708333333332,,20.073708333333332
163,2014-02-02,7.548749999999999,,7.548749999999999
163,2014-02-03,0.7050000000000001,,0.7050000000000001
163,2014-02-04,0.76125,,0.76125
163,2014-02-05,0.00375,,0.00375
163,2014-02-06,0.0,,0.0
163,2014-02-07,0.00375,,0.00375
163,2014-02-08,0.00375,,0.00375
163,2014-02-09,0.0,,0.0
163,2014-02-10,0.00375,,0.00375
163,2014-02-11,0.0,,0.0
163,2014-02-12,0.00375,,0.00375
163,2014-02-13,0.0,,0.0
163,2014-02-14,1.39125,,1.39125
163,2014-02-15,2.3474999999999997,,2.3474999999999997
163,2014-02-16,6.2512500000000015,,6.2512500000000015
163,2014-02-17,11.538749999999999,,11.538749999999999
163,2014-02-18,0.0075,,0.0075
163,2014-02-19,0.00375,,0.00375
163,2014-02-20,1.76625,,1.76625
163,2014-02-21,0.6825,,0.6825
163,2014-02-22,14.29875,,14.29875
163,2014-02-23,7.601250000000001,,7.601250000000001
163,2014-02-24,11.729999999999999,,11.729999999999999
163,2014-02-25,14.066250000000002,,14.066250000000002
163,2014-02-26,16.53,,16.53
163,2014-02-27,13.485,,13.485
163,2014-02-28,20.276249999999997,,20.276249999999997
163,2014-03-01,16.061333333333334,,16.061333333333334
163,2014-03-02,8.82,,8.82
163,2014-03-03,10.743708333333332,,10.743708333333332
163,2014-03-04,14.347500000000002,,14.347500000000002
163,2014-03-05,8.456208333333333,,8.456208333333333
163,2014-03-06,21.982499999999998,,21.982499999999998
163,2014-03-07,14.576291666666668,,14.576291666666668
163,2014-03-08,13.841208333333329,,13.841208333333329
163,2014-03-09,23.22383333333333,,23.22383333333333
163,2014-03-10,13.305,,13.305
163,2014-03-11,35.06254166666667,,35.06254166666667
163,2014-03-12,6.457583333333333,,6.457583333333333
163,2014-03-13,36.735083333333336,,36.735083333333336
163,2014-03-14,41.80125,,41.80125
163,2014-03-15,40.803708333333326,,40.803708333333326
163,2014-03-16,53.730041666666665,,53.730041666666665
163,2014-03-17,54.063791666666674,,54.063791666666674
163,2014-03-18,59.051291666666664,,59.051291666666664
163,2014-03-19,22.34241666666667,,22.34241666666667
163,2014-03-20,36.58120833333333,,36.58120833333333
163,2014-03-21,50.42995833333334,,50.42995833333334
163,2014-03-22,48.01133333333333,,48.01133333333333
163,2014-03-23,35.36249999999999,,35.36249999999999
163,2014-03-24,59.006125000000004,,59.006125000000004
163,2014-03-25,46.47391666666667,,46.47391666666667
163,2014-03-26,56.41516666666667,,56.41516666666667
163,2014-03-27,57.082625,,57.082625
163,2014-03-28,9.877541666666668,,9.877541666666668
163,2014-03-29,25.837708333333325,,25.837708333333325
163,2014-03-30,14.910166666666667,,14.910166666666667
163,2014-03-31,36.870333333333335,,36.870333333333335
163,2014-04-01,50.70375000000001,,50.70375000000001
163,2014-04-02,39.65637499999999,,39.65637499999999
163,2014-04-03,58.728833333333334,,58.728833333333334
163,2014-04-04,14.65170833333333,,14.65170833333333
163,2014-04-05,42.873749999999994,,42.873749999999994
163,2014-04-06,63.29270833333333,,63.29270833333333
163,2014-04-07,9.457541666666666,,9.457541666666666
163,2014-04-08,37.88999999999999,,37.88999999999999
163,2014-04-09,61.21504166666668,,61.21504166666668
163,2014-04-10,67.24120833333335,,67.24120833333335
163,2014-04-11,28.67254166666667,,28.67254166666667
163,2014-04-12,60.23245833333334,,60.23245833333334
163,2014-04-13,48.26620833333334,,48.26620833333334
163,2014-04-14,40.702541666666676,,40.702541666666676
163,2014-04-15,8.081375000000003,,8.081375000000003
163,2014-04-16,73.49983333333334,,73.49983333333334
163,2014-04-17,71.3475,,71.3475
163,2014-04-18,45.225,,45.225
163,2014-04-19,69.127625,,69.127625
163,2014-04-20,70.86029166666667,,70.86029166666667
163,2014-04-21,67.09512500000001,,67.09512500000001
163,2014-04-22,29.497541666666667,,29.497541666666667
163,2014-04-23,21.11625,,21.11625
163,2014-04-24,72.51754166666666,,72.51754166666666
163,2014-04-25,57.13116666666667,,57.13116666666667
163,2014-04-26,34.38,,34.38
163,2014-04-27,26.167416666666657,,26.167416666666657
163,2014-04-28,70.53387500000001,,70.53387500000001
163,2014-04-29,15.434916666666664,,15.434916666666664
163,2014-04-30,7.124874999999999,,7.124874999999999
163,2014-05-01,49.867375,,49.867375
163,2014-05-02,37.78116666666667,,37.78116666666667
163,2014-05-03,40.65375,,40.65375
163,2014-05-04,46.29750000000001,,46.29750000000001
163,2014-05-05,63.127500000000005,,63.127500000000005
163,2014-05-06,46.76258333333334,,46.76258333333334
163,2014-05-07,60.6525,,60.6525
163,2014-05-08,35.010124999999995,,35.010124999999995
163,2014-05-09,10.931166666666668,,10.931166666666668
163,2014-05-10,40.365,,40.365
163,2014-05-11,70.09516666666666,,70.09516666666666
163,2014-05-12,65.09633333333333,,65.09633333333333
163,2014-05-13,51.01491666666667,,51.01491666666667
163,2014-05-14,60.435,,60.435
163,2014-05-15,7.93875,,7.93875
163,2014-05-16,17.111208333333334,,17.111208333333334
163,2014-05-17,60.37129166666667,,60.37129166666667
163,2014-05-18,52.63883333333334,,52.63883333333334
163,2014-05-19,43.25995833333332,,43.25995833333332
163,2014-05-20,70.608875,,70.608875
163,2014-05-21,46.61633333333334,,46.61633333333334
163,2014-05-22,14.163625000000001,,14.163625000000001
163,2014-05-23,19.63870833333333,,19.63870833333333
163,2014-05-24,44.34370833333333,,44.34370833333333
163,2014-05-25,63.96391666666667,,63.96391666666667
163,2014-05-26,47.50875,,47.50875
163,2014-05-27,53.95870833333333,,53.95870833333333
163,2014-05-28,16.548791666666666,,16.548791666666666
163,2014-05-29,71.17145833333333,,71.17145833333333
163,2014-05-30,53.45624999999999,,53.45624999999999
163,2014-05-31,59.53554166666666,,59.53554166666666
163,2014-06-01,70.48108333333333,,70.48108333333333
163,2014-06-02,68.478875,,68.478875
163,2014-06-03,50.51616666666666,,50.51616666666666
163,2014-06-04,57.69741666666666,,57.69741666666666
163,2014-06-05,34.20308333333334,,34.20308333333334
163,2014-06-06,51.21358333333333,,51.21358333333333
163,2014-06-07,66.54008333333333,,66.54008333333333
163,2014-06-08,64.41033333333333,,64.41033333333333
163,2014-06-09,12.716083333333332,,12.716083333333332
163,2014-06-10,44.216125,,44.216125
163,2014-06-11,10.144124999999999,,10.144124999999999
163,2014-06-12,6.809875000000001,,6.809875000000001
163,2014-06-13,14.422458333333337,,14.422458333333337
163,2014-06-14,43.86004166666667,,43.86004166666667
163,2014-06-15,70.75404166666667,,70.75404166666667
163,2014-06-16,67.77379166666667,,67.77379166666667
163,2014-06-17,60.877624999999995,,60.877624999999995
163,2014-06-18,66.04541666666665,,66.04541666666665
163,2014-06-19,53.80854166666666,,53.80854166666666
163,2014-06-20,61.98770833333334,,61.98770833333334
163,2014-06-21,64.37974999999999,,64.37974999999999
163,2014-06-22,65.089,,65.089
163,2014-06-23,59.74900000000002,,59.74900000000002
163,2014-06-24,26.336583333333337,,26.336583333333337
163,2014-06-25,47.87229166666668,,47.87229166666668
163,2014-06-26,47.205208333333324,,47.205208333333324
163,2014-06-27,65.013875,,65.013875
163,2014-06-28,60.56262499999999,,60.56262499999999
163,2014-06-29,59.98504166666667,,59.98504166666667
163,2014-06-30,50.23849999999999,,50.23849999999999
163,2014-07-01,58.74783333333334,,58.74783333333334
163,2014-07-02,27.742333333333335,,27.742333333333335
163,2014-07-03,37.02425,,37.02425
163,2014-07-04,7.485,,7.485
163,2014-07-05,34.33841666666666,,34.33841666666666
163,2014-07-06,34.00883333333333,,34.00883333333333
163,2014-07-07,24.18370833333334,,24.18370833333334
163,2014-07-08,26.017625000000006,,26.017625000000006
163,2014-07-09,27.401249999999994,,27.401249999999994
163,2014-07-10,33.81841666666667,,33.81841666666667
163,2014-07-11,63.44608333333333,,63.44608333333333
163,2014-07-12,58.84191666666666,,58.84191666666666
163,2014-07-13,21.91854166666667,,21.91854166666667
163,2014-07-14,27.30775000000001,,27.30775000000001
163,2014-07-15,27.62629166666667,,27.62629166666667
163,2014-07-16,50.06945833333333,,50.06945833333333
163,2014-07-17,47.68833333333333,,47.68833333333333
163,2014-07-18,59.831416666666655,,59.831416666666655
163,2014-07-19,33.20283333333334,,33.20283333333334
163,2014-07-20,64.23316666666666,,64.23316666666666
163,2014-07-21,49.477583333333335,,49.477583333333335
163,2014-07-22,62.58775000000001,,62.58775000000001
163,2014-07-23,55.983875000000005,,55.983875000000005
163,2014-07-24,66.44645833333334,,66.44645833333334
163,2014-07-25,63.629749999999994,,63.629749999999994
163,2014-07-26,49.728124999999984,,49.728124999999984
163,2014-07-27,47.65799999999999,,47.65799999999999
163,2014-07-28,22.222458333333332,,22.222458333333332
163,2014-07-29,24.007666666666665,,24.007666666666665
163,2014-07-30,37.20783333333333,,37.20783333333333
163,2014-07-31,43.49279166666667,,43.49279166666667
163,2014-08-01,49.14370833333334,,49.14370833333334
163,2014-08-02,50.961875,,50.961875
163,2014-08-03,45.88933333333333,,45.88933333333333
163,2014-08-04,53.122375,,53.122375
163,2014-08-05,58.16654166666667,,58.16654166666667
163,2014-08-06,48.53308333333333,,48.53308333333333
163,2014-08-07,55.89358333333333,,55.89358333333333
163,2014-08-08,59.63641666666668,,59.63641666666668
163,2014-08-09,63.61158333333332,,63.61158333333332
163,2014-08-10,62.74450000000001,,62.74450000000001
163,2014-08-11,60.090541666666674,,60.090541666666674
163,2014-08-12,22.8115,,22.8115
163,2014-08-13,25.27866666666667,,25.27866666666667
163,2014-08-14,55.94299999999999,,55.94299999999999
163,2014-08-15,30.389958333333336,,30.389958333333336
163,2014-08-16,52.18566666666667,,52.18566666666667
163,2014-08-17,45.401125,,45.401125
163,2014-08-18,61.398791666666675,,61.398791666666675
163,2014-08-19,64.06837499999999,,64.06837499999999
163,2014-08-20,50.775458333333326,,50.775458333333326
163,2014-08-21,27.277,,27.277
163,2014-08-22,9.989583333333336,,9.989583333333336
163,2014-08-23,32.73016666666666,,32.73016666666666
163,2014-08-24,51.88120833333334,,51.88120833333334
163,2014-08-25,60.17612499999999,,60.17612499999999
163,2014-08-26,59.486041666666665,,59.486041666666665
163,2014-08-27,45.35575000000001,,45.35575000000001
163,2014-08-28,46.05404166666667,,46.05404166666667
163,2014-08-29,61.19995833333334,,61.19995833333334
163,2014-08-30,52.65783333333332,,52.65783333333332
163,2014-08-31,28.019541666666672,,28.019541666666672
163,2014-09-01,51.89266666666666,,51.89266666666666
163,2014-09-02,41.404333333333334,,41.404333333333334
163,2014-09-03,54.765375000000006,,54.765375000000006
163,2014-09-04,53.35879166666667,,53.35879166666667
163,2014-09-05,51.31479166666667,,51.31479166666667
163,2014-09-06,37.489666666666665,,37.489666666666665
163,2014-09-07,60.873500000000014,,60.873500000000014
163,2014-09-08,49.140208333333334,,49.140208333333334
163,2014-09-09,38.43820833333333,,38.43820833333333
163,2014-09-10,54.43491666666667,,54.43491666666667
163,2014-09-11,10.646499999999998,,10.646499999999998
163,2014-09-12,59.37366666666667,,59.37366666666667
163,2014-09-13,11.909541666666668,,11.909541666666668
163,2014-09-14,59.11491666666668,,59.11491666666668
163,2014-09-15,58.879250000000006,,58.879250000000006
163,2014-09-16,27.72791666666667,,27.72791666666667
163,2014-09-17,53.557625,,53.557625
163,2014-09-18,47.511958333333325,,47.511958333333325
163,2014-09-19,59.05145833333333,,59.05145833333333
163,2014-09-20,36.419916666666666,,36.419916666666666
163,2014-09-21,38.00658333333333,,38.00658333333333
163,2014-09-22,53.325250000000004,,53.325250000000004
163,2014-09-23,55.26304166666666,,55.26304166666666
163,2014-09-24,45.64095833333334,,45.64095833333334
163,2014-09-25,16.66470833333333,,16.66470833333333
163,2014-09-26,53.52345833333334,,53.52345833333334
163,2014-09-27,51.67941666666667,,51.67941666666667
163,2014-09-28,48.74583333333334,,48.74583333333334
163,2014-09-29,23.726583333333334,,23.726583333333334
163,2014-09-30,27.075166666666664,,27.075166666666664
163,2014-10-01,10.489083333333333,,10.489083333333333
163,2014-10-02,26.898541666666663,,26.898541666666663
163,2014-10-03,51.46941666666666,,51.46941666666666
163,2014-10-04,3.1653333333333333,,3.1653333333333333
163,2014-10-05,52.96549999999999,,52.96549999999999
163,2014-10-06,41.914375,,41.914375
163,2014-10-07,30.926083333333334,,30.926083333333334
163,2014-10-08,43.28941666666666,,43.28941666666666
163,2014-10-09,45.731166666666674,,45.731166666666674
163,2014-10-10,43.70970833333334,,43.70970833333334
163,2014-10-11,27.345083333333335,,27.345083333333335
163,2014-10-12,49.2455,,49.2455
163,2014-10-13,14.234,,14.234
163,2014-10-14,20.45575,,20.45575
163,2014-10-15,14.085958333333332,,14.085958333333332
163,2014-10-16,7.837208333333333,,7.837208333333333
163,2014-10-17,22.976208333333336,,22.976208333333336
163,2014-10-18,7.219708333333333,,7.219708333333333
163,2014-10-19,24.34466666666667,,24.34466666666667
163,2014-10-20,10.158541666666666,,10.158541666666666
163,2014-10-21,2.6663333333333337,,2.6663333333333337
163,2014-10-22,3.195,,3.195
163,2014-10-23,4.991208333333333,,4.991208333333333
163,2014-10-24,10.431958333333334,,10.431958333333334
163,2014-10-25,35.512750000000004,,35.512750000000004
163,2014-10-26,9.345125,,9.345125
163,2014-10-27,41.321625000000004,,41.321625000000004
163,2014-10-28,24.92125,,24.92125
163,2014-10-29,5.152,,5.152
163,2014-10-30,24.288750000000004,,24.288750000000004
163,2014-10-31,29.8275,,29.8275
163,2014-11-01,8.981125,,8.981125
163,2014-11-02,15.547291666666666,,15.547291666666666
163,2014-11-03,21.171916666666668,,21.171916666666668
163,2014-11-04,17.231416666666668,,17.231416666666668
163,2014-11-05,7.069000000000002,,7.069000000000002
163,2014-11-06,2.174541666666667,,2.174541666666667
163,2014-11-07,11.040041666666667,,11.040041666666667
163,2014-11-08,35.609750000000005,,35.609750000000005
163,2014-11-09,26.610083333333336,,26.610083333333336
163,2014-11-10,25.4405,,25.4405
163,2014-11-11,15.093750000000002,,15.093750000000002
163,2014-11-12,12.206333333333333,,12.206333333333333
163,2014-11-13,17.748375,,17.748375
163,2014-11-14,22.976583333333338,,22.976583333333338
163,2014-11-15,35.81283333333333,,35.81283333333333
163,2014-11-16,12.926124999999999,,12.926124999999999
163,2014-11-17,2.715208333333333,,2.715208333333333
163,2014-11-18,31.455083333333334,,31.455083333333334
163,2014-11-19,34.686875,,34.686875
163,2014-11-20,32.114875,,32.114875
163,2014-11-21,24.119541666666667,,24.119541666666667
163,2014-11-22,26.777708333333337,,26.777708333333337
163,2014-11-23,23.70479166666667,,23.70479166666667
163,2014-11-24,9.154333333333332,,9.154333333333332
163,2014-11-25,13.469708333333335,,13.469708333333335
163,2014-11-26,0.04104166666666667,,0.04104166666666667
163,2014-11-27,0.0,,0.0
163,2014-11-28,0.0,,0.0
163,2014-11-29,0.0,,0.0
163,2014-11-30,0.014958333333333336,,0.014958333333333336
163,2014-12-01,7.908833333333334,,7.908833333333334
163,2014-12-02,14.710625000000002,,14.710625000000002
163,2014-12-03,6.015666666666667,,6.015666666666667
163,2014-12-04,16.83695833333333,,16.83695833333333
163,2014-12-05,9.318708333333333,,9.318708333333333
163,2014-12-06,2.235,,2.235
163,2014-12-07,28.819,,28.819
163,2014-12-08,13.919916666666666,,13.919916666666666
163,2014-12-09,0.45050000000000007,,0.45050000000000007
163,2014-12-10,5.81675,,5.81675
163,2014-12-11,0.566125,,0.566125
163,2014-12-12,11.617916666666668,,11.617916666666668
163,2014-12-13,27.824249999999992,,27.824249999999992
163,2014-12-14,6.375041666666665,,6.375041666666665
163,2014-12-15,24.386416666666666,,24.386416666666666
163,2014-12-16,3.393875,,3.393875
163,2014-12-17,4.069375,,4.069375
163,2014-12-18,9.911791666666668,,9.911791666666668
163,2014-12-19,10.188166666666666,,10.188166666666666
163,2014-12-20,5.508166666666667,,5.508166666666667
163,2014-12-21,5.024791666666666,,5.024791666666666
163,2014-12-22,5.3772916666666655,,5.3772916666666655
163,2014-12-23,2.56125,,2.56125
163,2014-12-24,1.2754166666666664,,1.2754166666666664
163,2014-12-25,9.573583333333334,,9.573583333333334
163,2014-12-26,26.163708333333336,,26.163708333333336
163,2014-12-27,22.766333333333332,,22.766333333333332
163,2014-12-28,4.290041666666666,,4.290041666666666
163,2014-12-29,8.931999999999999,,8.931999999999999
163,2014-12-30,22.23695833333333,,22.23695833333333
163,2014-12-31,30.100999999999996,,30.100999999999996
163,2015-01-01,28.785500000000003,,28.785500000000003
163,2015-01-02,14.313791666666665,,14.313791666666665
163,2015-01-03,4.20775,,4.20775
163,2015-01-04,1.0230833333333333,,1.0230833333333333
163,2015-01-05,29.692416666666663,,29.692416666666663
163,2015-01-06,9.255541666666664,,9.255541666666664
163,2015-01-07,15.514375000000001,,15.514375000000001
163,2015-01-08,31.43983333333333,,31.43983333333333
163,2015-01-09,2.2125833333333333,,2.2125833333333333
163,2015-01-10,7.101875,,7.101875
163,2015-01-11,1.2382916666666663,,1.2382916666666663
163,2015-01-12,0.13483333333333333,,0.13483333333333333
163,2015-01-13,6.100958333333334,,6.100958333333334
163,2015-01-14,4.536458333333333,,4.536458333333333
163,2015-01-15,8.475666666666667,,8.475666666666667
163,2015-01-16,10.181041666666667,,10.181041666666667
163,2015-01-17,20.933,,20.933
163,2015-01-18,1.4961666666666666,,1.4961666666666666
163,2015-01-19,7.785166666666666,,7.785166666666666
163,2015-01-20,30.551416666666665,,30.551416666666665
163,2015-01-21,16.788750000000004,,16.788750000000004
163,2015-01-22,23.26070833333333,,23.26070833333333
163,2015-01-23,35.561249999999994,,35.561249999999994
163,2015-01-24,0.08595833333333334,,0.08595833333333334
163,2015-01-25,13.238333333333332,,13.238333333333332
163,2015-01-26,10.338166666666668,,10.338166666666668
163,2015-01-27,0.10908333333333332,,0.10908333333333332
163,2015-01-28,1.7894166666666667,,1.7894166666666667
163,2015-01-29,3.678416666666667,,3.678416666666667
163,2015-01-30,0.131875,,0.131875
163,2015-01-31,1.4365000000000003,,1.4365000000000003
163,2015-02-01,2.020833333333333,,2.020833333333333
163,2015-02-02,0.0,,0.0
163,2015-02-03,0.007166666666666666,,0.007166666666666666
163,2015-02-04,0.0,,0.0
163,2015-02-05,0.0,,0.0
163,2015-02-06,0.0,,0.0
163,2015-02-07,0.0,,0.0
163,2015-02-08,0.003583333333333333,,0.003583333333333333
163,2015-02-09,0.0,,0.0
163,2015-02-10,0.4687083333333333,,0.4687083333333333
163,2015-02-11,4.556583333333334,,4.556583333333334
163,2015-02-12,1.8974166666666668,,1.8974166666666668
163,2015-02-13,7.376291666666668,,7.376291666666668
163,2015-02-14,1.2975833333333333,,1.2975833333333333
163,2015-02-15,0.2812916666666667,,0.2812916666666667
163,2015-02-16,0.95575,,0.95575
163,2015-02-17,2.6367916666666664,,2.6367916666666664
163,2015-02-18,6.6777500000000005,,6.6777500000000005
163,2015-02-19,3.4394999999999993,,3.4394999999999993
163,2015-02-20,8.587583333333333,,8.587583333333333
163,2015-02-21,2.576208333333333,,2.576208333333333
163,2015-02-22,1.5559583333333336,,1.5559583333333336
163,2015-02-23,11.643208333333334,,11.643208333333334
163,2015-02-24,11.377249999999998,,11.377249999999998
163,2015-02-25,13.499999999999998,,13.499999999999998
163,2015-02-26,2.4674583333333335,,2.4674583333333335
163,2015-02-27,13.589875,,13.589875
163,2015-02-28,16.94695833333333,,16.94695833333333
163,2015-03-01,5.669958333333334,,5.669958333333334
163,2015-03-02,1.2525416666666669,,1.2525416666666669
163,2015-03-03,5.992958333333331,,5.992958333333331
163,2015-03-04,1.3610833333333332,,1.3610833333333332
163,2015-03-05,2.658875,,2.658875
163,2015-03-06,19.518958333333334,,19.518958333333334
163,2015-03-07,16.867916666666666,,16.867916666666666
163,2015-03-08,15.607499999999996,,15.607499999999996
163,2015-03-09,21.362958333333335,,21.362958333333335
163,2015-03-10,14.858041666666667,,14.858041666666667
163,2015-03-11,42.172875000000005,,42.172875000000005
163,2015-03-12,61.27474999999999,,61.27474999999999
163,2015-03-13,50.029041666666664,,50.029041666666664
163,2015-03-14,8.081291666666667,,8.081291666666667
163,2015-03-15,13.169916666666667,,13.169916666666667
163,2015-03-16,37.717749999999995,,37.717749999999995
163,2015-03-17,25.342125000000006,,25.342125000000006
163,2015-03-18,52.41016666666666,,52.41016666666666
163,2015-03-19,65.19429166666667,,65.19429166666667
163,2015-03-20,15.442041666666666,,15.442041666666666
163,2015-03-21,31.109750000000002,,31.109750000000002
163,2015-03-22,65.20866666666666,,65.20866666666666
163,2015-03-23,67.26308333333334,,67.26308333333334
163,2015-03-24,59.497083333333336,,59.497083333333336
163,2015-03-25,41.29491666666666,,41.29491666666666
163,2015-03-26,11.782583333333333,,11.782583333333333
163,2015-03-27,23.745416666666667,,23.745416666666667
163,2015-03-28,27.956374999999998,,27.956374999999998
163,2015-03-29,67.43658333333333,,67.43658333333333
163,2015-03-30,24.873375,,24.873375
163,2015-03-31,33.44954166666667,,33.44954166666667
163,2015-04-01,67.04304166666667,,67.04304166666667
163,2015-04-02,52.48570833333333,,52.48570833333333
163,2015-04-03,17.48608333333333,,17.48608333333333
163,2015-04-04,67.92766666666667,,67.92766666666667
163,2015-04-05,19.52241666666667,,19.52241666666667
163,2015-04-06,58.59016666666667,,58.59016666666667
163,2015-04-07,12.082333333333336,,12.082333333333336
163,2015-04-08,9.832375,,9.832375
163,2015-04-09,10.649791666666667,,10.649791666666667
163,2015-04-10,19.676124999999995,,19.676124999999995
163,2015-04-11,48.832750000000004,,48.832750000000004
163,2015-04-12,67.45116666666667,,67.45116666666667
163,2015-04-13,57.57775,,57.57775